Simultaneous Nadir Overpasses (SNOs) Predictions

Prediction of SNOs between GOES-17 and TERRA Satellite Orbit:

Table of predicted SNOs for the next 14.0 days since TLE Epoch: 4/8/2023
Index Date Time (GOES-17) GOES-17 Lat,Lon TERRA Lat,Lon Distance(km) Time Diff (sec)
1 04/09/2023 17:07:30 0.00,-104.76 0.04,-105.11 39.42 80
2 04/11/2023 16:54:01 0.01,-104.75 -0.76,-101.21 403.04 80
3 04/12/2023 05:14:22 -0.01,-104.71 -0.31,-106.15 163.90 80
4 04/14/2023 04:55:34 -0.01,-104.70 0.52,-102.25 278.21 80
5 04/14/2023 17:15:48 0.01,-104.73 0.50,-107.18 277.43 80
6 04/16/2023 17:02:18 0.01,-104.72 -0.30,-103.27 165.39 80
7 04/17/2023 05:22:40 -0.01,-104.69 -0.75,-108.21 400.93 80
8 04/19/2023 05:03:50 -0.01,-104.68 0.07,-104.31 42.55 80
9 04/21/2023 04:47:39 -0.02,-104.68 0.86,-100.40 486.33 80
10 04/21/2023 17:07:54 0.02,-104.71 0.14,-105.32 69.12 80
